Вернуться в каталог

CZ-6A DEB

АктивенSSO
NORAD 56654·DEBRIS·🇨🇳 China

Запущен Nov 11, 2022 с Taiyuan Satellite Launch Center

Loading…

Ближайшие Пролёты (ближайшие 24 часа)

TLE

СвежийSource: Space-Track

Эпоха: Sep 12, 2026, 09:00 UTC

1 56654U 22151AGE 26255.37543893  .00000049  00000-0  63689-4 0  9998
2 56654  98.9091 220.5766 0136049 216.1351 143.0560 13.94908147172638

Отслеживайте CZ-6A DEB в реальном времени с AllMySat

Download on the App Store